Regional Weather Roundup
Issued by NWS

Home | Current Version | Previous Version | Graphics & Text | Print | Product List | Glossary On
Versions: 1 2 3 4 5 6 7 8 9 10 11 12 13 14 15 16 17 18 19 20 21 22 23 24 25 26 27 28 29
000
ASUS45 KTFX 292210
RWRMT
MONTANA REGIONAL WEATHER ROUNDUP
NATIONAL WEATHER SERVICE GREAT FALLS MT
400 PM MDT FRI APR 29 2016

NOTE: "FAIR" INDICATES FEW OR NO CLOUDS BELOW 12000 FEET WITH NO
SIGNIFICANT WEATHER AND/OR OBSTRUCTIONS TO VISIBILITY.

MTZ001>007-043-292300-
WEST OF THE DIVIDE

CITY           SKY/WX    TMP DP  RH WIND       PRES   REMARKS
KALISPELL      CLOUDY    51  30  44 CALM      29.93R
MISSOULA       CLOUDY    51  30  44 W3        29.91S
BUTTE          CLOUDY    47  29  49 E9        29.86S
MULLAN PASS    CLOUDY    37  28  70 VRB3      29.91S
ANACONDA         N/A     46  32  57 CALM      29.86S
DEER LODGE       N/A     50  28  43 NE3       29.86F
EUREKA           N/A     52  34  50 SE6       29.94S
HAMILTON         N/A     48  30  49 NE5       29.89S
LIBBY            N/A     52  36  54 N6        29.94S
PLAINS           N/A     55  31  40 CALM      29.93S
$$

MTZ008-052>055-292300-
SOUTHWEST MONTANA

CITY           SKY/WX    TMP DP  RH WIND       PRES   REMARKS
BOZEMAN        SUNNY     53  31  42 S3        29.85F
DILLON         CLOUDY    51  30  44 E7        29.82F
ENNIS          CLOUDY    50  32  50 NW12G20   29.88F
THREE FORKS      N/A     55   9  16 NW5       29.87F
TWIN BRIDGES     N/A     54  27  35 W5        29.85F
$$

MTZ009-010-012-014-046-048-049-054-292300-
EAST SLOPES AND CENTRAL MONTANA

CITY           SKY/WX    TMP DP  RH WIND       PRES   REMARKS
CUT BANK       CLOUDY    47  31  53 VRB6G16   29.95S
GREAT FALLS    CLOUDY    51  29  42 CALM      29.92F
HELENA         CLOUDY    53  27  36 NW6       29.89S
CHOTEAU          N/A     50  30  46 N6        29.93F
CONRAD           N/A     50  36  58 E10       29.97F
$$

MTZ011-013-016-021-045-047-050-051-292300-
NORTH CENTRAL MONTANA

CITY           SKY/WX    TMP DP  RH WIND       PRES   REMARKS
HAVRE          CLOUDY    54  35  48 E15       29.98S
LEWISTOWN      CLOUDY    48  32  53 SE18      29.97
N BAR RANCH    CLOUDY    43  32  65 E9        30.00S
CHINOOK          N/A     55  36  47 E14G22    30.00F
$$

MTZ017>020-022>027-061-062-292300-
NORTHEAST MONTANA

CITY           SKY/WX    TMP DP  RH WIND       PRES   REMARKS
GLASGOW        MOSUNNY   56  29  35 SE16      30.04F
JORDAN           N/A     52  36  54 E17       30.02S
SIDNEY         CLOUDY    57  32  38 SE16      30.11R
WOLF POINT     PTSUNNY   59  32  36 SE13G18   30.08F
PLENTYWOOD       N/A     57  25  28 SE13      30.10S
POPLAR           N/A     57  28  33 E14       30.09S
SCOBEY           N/A     59  25  27 E13       30.07S
$$

MTZ028>42-056>058-292300-
SOUTHCENTRAL AND SOUTHEAST MONTANA

CITY           SKY/WX    TMP DP  RH WIND       PRES   REMARKS
BAKER          CLOUDY    50  33  52 S16       30.08F
BILLINGS       CLOUDY    50  32  50 E15G22    29.97S
LIVINGSTON     CLOUDY    48  32  53 E20       29.90F
MILES CITY     CLOUDY    53  37  54 SE12      30.04S
EKALAKA          N/A     44  32  63 E10       30.04S
FORSYTH          N/A     52  36  54 E12       30.01S
LAUREL           N/A     50  29  44 NE9       29.96S
ROUNDUP          N/A     49  32  52 E6        29.90F
$$

REGIONAL REPORTS...DAKOTAS

CITY           SKY/WX    TMP DP  RH WIND       PRES   REMARKS
WILLISTON      PTSUNNY   60  27  28 SE10G22   30.11S
MINOT          SUNNY     65  21  18 E13G24    30.13S
DICKINSON      CLOUDY    55  27  34 E14G21    30.08S
BEACH          PTSUNNY   54  30  40 SE13G20   30.11S
CROSBY           N/A     59  18  20 E16G25    30.14S
WATFORD CITY     N/A     59  25  27 E13G21    30.11S
BISMARCK       MOSUNNY   60  33  36 SE15G26   30.11S
GRAND FORKS    MOSUNNY   64  32  30 NE14      30.14R
FARGO          SUNNY     65  31  28 NE10      30.09S
BUFFALO SD       N/A     49  33  54 SE13      30.01F
RAPID CITY     CLOUDY    44  35  70 NE7       30.05F
$$

REGIONAL REPORTS...WYOMING/IDAHO/WASHINGTON

CITY           SKY/WX    TMP DP  RH WIND       PRES   REMARKS
GILLETTE       CLOUDY    44  35  70 NE15      29.97F
SHERIDAN       CLOUDY    47  32  56 SE9       29.98S
BUFFALO WY       N/A    N/A N/A N/A MISG      29.98F
CODY           CLOUDY    45  30  57 NE3       29.93R
YELLOWSTONE LA   N/A     42  23  46 VRB5      29.88S
IDAHO FALLS    CLOUDY    55  34  45 S12G18    29.84F
SALMON         PTSUNNY   50  34  53 NW16      29.83S
BOISE          MOSUNNY   63  35  35 NW17G25   29.85F
SPOKANE        LGT RAIN  49  43  80 CALM      29.95S
$$

REGIONAL REPORTS...ALBERTA

CITY           SKY/WX    TMP DP  RH WIND       PRES   REMARKS
EDMONTON       MOSUNNY   63  27  25 SE18G29   29.96R
CALGARY        CLOUDY    50  30  46 SE17      29.96S
LETHBRIDGE     CLOUDY    48  34  57 E8        29.96S
MEDICINE HAT   CLOUDY    54  32  43 SE16      30.00S
WATERTON GATE    N/A     43  34  70 N3          N/A
MILK RIVER       N/A     48  32  53 SE9         N/A
ONEFOUR          N/A     50  36  57 E16         N/A
$$

REGIONAL REPORTS...SASKATCHEWAN

CITY           SKY/WX    TMP DP  RH WIND       PRES   REMARKS
SWIFT CURRENT  MOSUNNY   61  23  23 SE14G23   30.04F
REGINA         MOSUNNY   63  12  14 SE15G22   30.12F
SASKATOON      SUNNY     64  16  15 SE21      30.13F
CYPRESS HILLS    N/A     45  32  61 SE15G28     N/A
VAL MARIE        N/A     55  27  33 S16G24      N/A
ROCKGLEN         N/A     57  25  28 SE14G21     N/A
$$




USA.gov is the U.S. government's official web portal to all federal, state and local government web resources and services.